Location: Unspecified
(49.8670°N, 0.0000°E)
Time: 10:30:09
(UTC+00:00)

ISS - Pass Details

Date: 28 May 2019
Orbit: 408 x 418 km, 51.6° (Epoch: 16 June)

Event Time Altitude Azimuth Distance (km) Brightness Sun altitude
Rises 22:06:16 0° 288° (WNW) 2,359 0.8 -14.5°
Reaches altitude 10° 22:08:23 10° 284° (WNW) 1,496 -0.4 -14.6°
Maximum altitude 22:11:40 54° 206° (SSW) 513 -3.6 -14.9°
Enters shadow 22:12:50 34° 146° (SE) 714 -3.2 -14.9°
